Cape Girardeau, MO

2:55 PM CDT on August 20, 2017 (GMT -0500)
Cape Girardeau Regional

Weather History for KCGI - April, 2014

Change the Weather History Date:

Tuesday, April 22, 2014

  Actual Average Record
Temperature  
Mean Temperature 60 °F 59 °F  
Max Temperature 72 °F 71 °F 90 °F (1963)
Min Temperature 47 °F 48 °F 31 °F (2000)
Degree Days  
Heating Degree Days 5 7  
Month to date heating degree days 187 219  
Since 1 July heating degree days 4830 4275  
Cooling Degree Days 0 1  
Month to date cooling degree days 7 16  
Year to date cooling degree days 7 20  
Growing Degree Days 10 (Base 50)    
Moisture  
Dew Point 49 °F    
Average Humidity 63    
Maximum Humidity 97    
Minimum Humidity 29    
Precipitation  
Precipitation 0.01 in 0.16 in 2.20 in (1973)
Month to date precipitation 3.81 3.07  
Year to date precipitation 9.26 14.35  
Sea Level Pressure  
Sea Level Pressure 29.94 in    
Wind  
Wind Speed 11 mph (NNW)    
Max Wind Speed 21 mph    
Max Gust Speed 26 mph    
Visibility 8 miles    
Events      
T = Trace of Precipitation, MM = Missing Value Source: NWS Daily Summary

Daily Weather History Graph

Daily Weather History Graph

Search for Another Location

Airport or City:

Trip Planner

Search our weather history database for the weather conditions in past years. The results will help you decide how hot, cold, wet, or windy it might be!

Date:

Astronomy

Apr. 22, 2014 Rise Set
Actual Time 6:14 AM CDT 7:39 PM CDT
Civil Twilight 5:47 AM CDT 8:07 PM CDT
Nautical Twilight 5:14 AM CDT 8:39 PM CDT
Astronomical Twilight 4:40 AM CDT 9:14 PM CDT
Moon 1:54 AM CDT (4/22) 12:50 PM CDT (4/22)
Length of Visible Light 14h 19m
Length of Day
13h 25m
Last Quarter, 46% of the Moon is Illuminated
Apr 22
Last Quarter
Apr 29
New
May 6
First Quarter
May 14
Full
May 21
Last Quarter

Hourly Weather History & Observations

Time (CDT) Temp. Dew Point Humidity Pressure Visibility Wind Dir Wind Speed Gust Speed Precip Events Conditions
12:49 AM 64.4 °F 62.6 °F 94% 29.90 in 6.0 mi WNW 3.5 mph - N/A   Overcast
12:53 AM 64.0 °F 62.1 °F 93% 29.90 in 6.0 mi West 3.5 mph - N/A   Overcast
1:53 AM 62.1 °F 60.1 °F 93% 29.88 in 4.0 mi WSW 3.5 mph - 0.01 in   Scattered Clouds
2:53 AM 60.1 °F 57.9 °F 93% 29.87 in 4.0 mi West 6.9 mph - N/A   Partly Cloudy
3:53 AM 60.1 °F 59.0 °F 96% 29.88 in 6.0 mi West 5.8 mph - N/A   Overcast
4:36 AM 61.0 °F 59.0 °F 93% 29.89 in 6.0 mi NNW 10.4 mph 19.6 mph N/A   Mostly Cloudy
4:53 AM 62.1 °F 59.0 °F 90% 29.89 in 8.0 mi North 11.5 mph - N/A   Overcast
5:53 AM 62.1 °F 57.9 °F 86% 29.90 in 6.0 mi North 10.4 mph - N/A   Scattered Clouds
6:03 AM 62.1 °F 57.9 °F 86% 29.91 in 6.0 mi North 10.4 mph - N/A   Mostly Cloudy
6:33 AM 61.0 °F 57.0 °F 87% 29.92 in 5.0 mi NNW 8.1 mph - N/A   Scattered Clouds
6:53 AM 60.1 °F 55.0 °F 83% 29.93 in 7.0 mi North 12.7 mph - N/A   Clear
7:53 AM 61.0 °F 52.0 °F 72% 29.95 in 10.0 mi North 12.7 mph - N/A   Clear
8:53 AM 62.1 °F 48.9 °F 62% 29.96 in 10.0 mi North 15.0 mph - N/A   Unknown
9:53 AM 63.0 °F 48.0 °F 58% 29.97 in 10.0 mi NNW 13.8 mph - N/A   Clear
10:53 AM 64.9 °F 48.9 °F 56% 29.98 in 10.0 mi NNW 16.1 mph - N/A   Clear
11:53 AM 68.0 °F 46.9 °F 47% 29.97 in 10.0 mi NNW 16.1 mph - N/A   Clear
12:53 PM 69.1 °F 45.0 °F 42% 29.97 in 10.0 mi North 16.1 mph 23.0 mph N/A   Clear
1:53 PM 70.0 °F 41.0 °F 35% 29.96 in 10.0 mi North 15.0 mph 23.0 mph N/A   Clear
2:53 PM 71.1 °F 39.9 °F 32% 29.95 in 10.0 mi North 16.1 mph - N/A   Clear
3:53 PM 72.0 °F 42.1 °F 34% 29.93 in 10.0 mi North 13.8 mph - N/A   Clear
4:53 PM 71.1 °F 37.0 °F 29% 29.94 in 10.0 mi NNW 18.4 mph - N/A   Clear
5:53 PM 70.0 °F 39.0 °F 32% 29.94 in 10.0 mi North 15.0 mph - N/A   Clear
6:53 PM 66.9 °F 36.0 °F 32% 29.94 in 10.0 mi North 13.8 mph - N/A   Clear
7:53 PM 62.1 °F 37.0 °F 39% 29.96 in 10.0 mi NNE 9.2 mph - N/A   Clear
8:53 PM 59.0 °F 37.9 °F 46% 29.97 in 10.0 mi NNE 5.8 mph - N/A   Clear
9:53 PM 57.0 °F 37.9 °F 49% 29.98 in 10.0 mi NE 3.5 mph - N/A   Clear
10:53 PM 48.0 °F 42.1 °F 80% 29.99 in 10.0 mi West 4.6 mph - N/A   Clear
11:53 PM 48.0 °F 43.0 °F 83% 29.99 in 10.0 mi Calm Calm - N/A   Clear